This is the latest recevied weather packets stored in our database for station/object KJ6BBX. If no packets are shown the sender has not sent any weather packets the latest 10 day(s).
| Time | Temp. | Humidity | Pressure | Rain* | Wind** | Luminosity | Snow |
|---|---|---|---|---|---|---|---|
| 1777542614 | 11.67° C | 89% | 1006 hPa | 0 mm | - | 0 W/m² | - |
| 1777541714 | 11.67° C | 89% | 1005.8 hPa | 0 mm | - | 0 W/m² | - |
| 1777540815 | 11.67° C | 89% | 1006.4 hPa | 0 mm | - | 0 W/m² | - |
| 1777539915 | 11.67° C | 88% | 1006.4 hPa | 0 mm | - | 0 W/m² | - |
| 1777539014 | 12.22° C | 87% | 1006.4 hPa | 0 mm | - | 0 W/m² | - |
| 1777538116 | 12.78° C | 86% | 1006.8 hPa | 0 mm | - | 0 W/m² | - |
| 1777537214 | 12.78° C | 86% | 1006.9 hPa | 0 mm | - | 0 W/m² | - |
| 1777536315 | 12.22° C | 85% | 1007.1 hPa | 0 mm | - | 0 W/m² | - |
| 1777535414 | 12.22° C | 85% | 1007.2 hPa | 0 mm | - | 0 W/m² | - |
| 1777534514 | 12.22° C | 85% | 1007.3 hPa | 0 mm | - | 0 W/m² | - |
| 1777533614 | 12.22° C | 84% | 1007 hPa | 0 mm | - | 0 W/m² | - |
| 1777532714 | 12.78° C | 84% | 1007 hPa | 0 mm | - | 0 W/m² | - |
| 1777531814 | 12.78° C | 84% | 1007.2 hPa | 0 mm | - | 0 W/m² | - |
| 1777530914 | 13.33° C | 84% | 1007.3 hPa | 0 mm | - | 0 W/m² | - |
| 1777530014 | 13.33° C | 83% | 1007.2 hPa | 0 mm | - | 0 W/m² | - |
| 1777529118 | 13.89° C | 82% | 1007.5 hPa | 0 mm | - | 0 W/m² | - |
| 1777528214 | 13.89° C | 82% | 1007.5 hPa | 0 mm | - | 0 W/m² | - |
| 1777527314 | 13.89° C | 81% | 1007.6 hPa | 0 mm | - | 0 W/m² | - |
| 1777526414 | 13.89° C | 81% | 1007.4 hPa | 0 mm | - | 0 W/m² | - |
| 1777525514 | 13.89° C | 80% | 1007.5 hPa | 0 mm | - | 0 W/m² | - |
| 1777524614 | 13.89° C | 80% | 1007.4 hPa | 0 mm | - | 0 W/m² | - |
| 1777523714 | 14.44° C | 78% | 1007.4 hPa | 0 mm | - | 0 W/m² | - |
| 1777522814 | 15° C | 77% | 1007.5 hPa | 0 mm | - | 0 W/m² | - |
| 1777521914 | 15° C | 77% | 1007.4 hPa | 0 mm | - | 0 W/m² | - |
| 1777521014 | 15.56° C | 75% | 1007.4 hPa | 0 mm | - | 0 W/m² | - |
* Rain since midnight (hover to see other rain measurements)
** Current wind speed in m/s (hover to see current wind gust speed)